Location: Medlow Airstrip Trail, Medlow Bath NSW 2780, Australia
(33.6682°S, 150.3233°E)
Time: 15:24:18
(UTC+10:00)

Explorer 11/Cluster Stage 4 - All Passes

Search period start: 23 September 2019 00:00
Search period end: 03 October 2019 00:00
Orbit: 467 x 1260 km, 28.8° (Epoch: 21 September)

Date Brightness Start Highest point End Pass type
(mag) Time Alt. Az. Time Alt. Az. Time Alt. Az.
23 Sep - 07:38:50 10° NNW 07:41:52 17° NNE 07:45:19 10° ENE daylight
23 Sep - 09:24:48 10° WNW 09:29:43 43° NNE 09:35:50 10° E daylight
23 Sep - 11:12:24 10° WNW 11:18:16 57° N 11:25:29 10° ENE daylight
23 Sep - 13:00:42 10° W 13:07:08 44° NNW 13:14:36 10° NE daylight
23 Sep - 14:50:14 10° WNW 14:55:56 23° NNW 15:02:00 10° NNE daylight
24 Sep - 07:28:03 10° NNW 07:31:10 19° NNE 07:34:45 10° ENE daylight
24 Sep - 09:14:18 10° WNW 09:19:02 45° NNE 09:24:59 10° E daylight
24 Sep - 11:01:55 10° W 11:07:33 55° N 11:14:33 10° ENE daylight
24 Sep - 12:50:13 10° W 12:56:21 40° NNW 13:03:31 10° NE daylight
24 Sep - 14:39:58 10° WNW 14:45:04 20° NNW 14:50:31 10° NNE daylight
25 Sep - 07:17:19 10° NNW 07:20:30 20° NNE 07:24:09 10° ENE daylight
25 Sep - 09:03:48 10° WNW 09:08:23 46° N 09:14:07 10° E daylight
25 Sep - 10:51:28 10° W 10:56:52 53° N 11:03:36 10° ENE daylight
25 Sep - 12:39:46 10° W 12:45:33 36° NNW 12:52:22 10° NE daylight
25 Sep - 14:29:54 10° WNW 14:34:13 17° NNW 14:38:51 10° N daylight
26 Sep - 07:06:38 10° NNW 07:09:52 22° NNE 07:13:33 10° ENE daylight
26 Sep - 08:53:20 10° WNW 08:57:45 47° N 09:03:17 10° E daylight
26 Sep - 10:41:02 10° W 10:46:11 49° N 10:52:37 10° ENE daylight
26 Sep - 12:29:23 10° WNW 12:34:48 31° NNW 12:41:11 10° NE daylight
26 Sep - 14:20:07 10° NW 14:23:25 14° NNW 14:26:53 10° N daylight
27 Sep - 06:56:00 10° NW 06:59:14 24° NNE 07:02:57 10° ENE daylight
27 Sep - 08:42:54 10° WNW 08:47:10 47° N 08:52:27 10° ENE daylight
27 Sep - 10:30:37 10° W 10:35:31 45° N 10:41:39 10° ENE daylight
27 Sep - 12:19:04 10° WNW 12:24:04 27° NNW 12:29:55 10° NE daylight
27 Sep - 14:11:12 10° NW 14:12:37 11° NNW 14:14:04 10° NNW daylight
28 Sep - 06:45:24 10° NW 06:48:39 26° NNE 06:52:20 10° ENE daylight
28 Sep - 08:32:28 10° WNW 08:36:35 47° N 08:41:38 10° ENE daylight
28 Sep - 10:20:13 10° W 10:24:53 41° N 10:30:40 10° ENE daylight
28 Sep - 12:08:50 10° WNW 12:13:21 23° NNW 12:18:35 10° NNE daylight
29 Sep - 06:34:49 10° NW 06:38:05 28° NNE 06:41:44 10° ENE daylight
29 Sep - 08:22:03 10° WNW 08:26:01 46° N 08:30:50 10° ENE daylight
29 Sep - 10:09:51 10° WNW 10:14:15 37° N 10:19:40 10° NE daylight
29 Sep - 11:58:43 10° WNW 12:02:39 19° NNW 12:07:08 10° NNE daylight
30 Sep - 04:39:14 10° NNE 04:39:53 10° NNE 04:40:31 10° NE visible
30 Sep - 06:24:15 10° NW 06:27:31 30° NNE 06:31:09 10° ENE daylight
30 Sep - 08:11:38 10° WNW 08:15:28 44° N 08:20:03 10° ENE daylight
30 Sep - 09:59:32 10° WNW 10:03:39 32° NNW 10:08:38 10° NE daylight
30 Sep - 11:48:47 10° WNW 11:51:58 16° NNW 11:55:31 10° NNE daylight
01 Oct - 04:27:38 10° N 04:29:17 13° NNE 04:30:57 10° NE visible
01 Oct - 06:13:41 10° NW 06:17:00 32° N 06:20:34 10° ENE daylight
01 Oct - 08:01:14 10° WNW 08:04:56 42° N 08:09:17 10° ENE daylight
01 Oct - 09:49:14 10° WNW 09:53:04 28° NNW 09:57:36 10° NE daylight
01 Oct - 11:39:14 10° NW 11:41:19 12° NNW 11:43:33 10° N daylight
02 Oct - 04:16:29 10° NNW 04:18:43 15° NNE 04:20:54 10° ENE visible
02 Oct - 06:03:08 10° WNW 06:06:28 34° N 06:10:00 10° ENE daylight
02 Oct - 07:50:50 10° WNW 07:54:24 39° N 07:58:31 10° ENE daylight
02 Oct - 09:39:00 10° WNW 09:42:28 23° NNW 09:46:30 10° NE daylight
